DCCHB LFSB-EDNY

Flight info

Callsign DCCHB
Flight time 0h 16m
Altitude 22000
Route ELBEG Y715 AMRUP/N0405F210 N491 ZUE ZUE1F
Aircraft LJ35/M-SGHRWXY/SB1

Departure

Time 2026-05-08 17:30
Airport EuroAirport Basel–Mulhouse–Freiburg (LFSB)

Arrival

Time 2026-05-08 17:46
Airport Bodensee Airport Friedrichshafen (EDNY)
Time Latitude Longitude Altitude Speed Heading
2026-05-08 17:23 47.60330 7.52448 881 ft 0 kts 321°
2026-05-08 17:27 47.60339 7.52438 880 ft 6 kts 320°
2026-05-08 17:27 47.60335 7.52409 880 ft 0 kts 202°
2026-05-08 17:28 47.60333 7.52409 880 ft 2 kts 202°
2026-05-08 17:28 47.60300 7.52422 882 ft 7 kts 131°
2026-05-08 17:28 47.60290 7.52483 883 ft 6 kts 101°
2026-05-08 17:28 47.60256 7.52496 884 ft 7 kts 203°
2026-05-08 17:29 47.60203 7.52460 884 ft 10 kts 220°
2026-05-08 17:29 47.60165 7.52358 884 ft 13 kts 244°
2026-05-08 17:29 47.60124 7.52226 884 ft 15 kts 248°
2026-05-08 17:29 47.60228 7.52067 883 ft 50 kts 334°
2026-05-08 17:30 47.60875 7.51609 888 ft 151 kts 335°
2026-05-08 17:30 47.61950 7.51200 1659 ft 169 kts
2026-05-08 17:30 47.62962 7.52056 2677 ft 178 kts 53°
2026-05-08 17:30 47.63373 7.53879 3676 ft 208 kts 80°
2026-05-08 17:31 47.63555 7.56190 4390 ft 239 kts 83°
2026-05-08 17:31 47.63730 7.58746 5259 ft 258 kts 84°
2026-05-08 17:31 47.63902 7.61461 6321 ft 272 kts 88°
2026-05-08 17:31 47.63906 7.64388 7145 ft 297 kts 92°
2026-05-08 17:32 47.63767 7.67624 7705 ft 333 kts 96°
2026-05-08 17:32 47.63560 7.71181 8367 ft 356 kts 95°
2026-05-08 17:32 47.63400 7.74904 9149 ft 367 kts 94°
2026-05-08 17:32 47.63266 7.78750 9953 ft 379 kts 94°
2026-05-08 17:33 47.63101 7.82677 10559 ft 394 kts 95°
2026-05-08 17:33 47.62905 7.86851 11184 ft 408 kts 95°
2026-05-08 17:33 47.62715 7.91131 11708 ft 423 kts 95°
2026-05-08 17:33 47.62535 7.95456 12324 ft 417 kts 95°
2026-05-08 17:34 47.62354 7.99653 12930 ft 410 kts 95°
2026-05-08 17:34 47.62161 8.03854 13535 ft 406 kts 95°
2026-05-08 17:34 47.62003 8.07283 13990 ft 404 kts 95°
2026-05-08 17:34 47.61815 8.11475 14259 ft 410 kts 95°
2026-05-08 17:35 47.61659 8.14915 14483 ft 412 kts 95°
2026-05-08 17:35 47.61463 8.19162 14763 ft 415 kts 95°
2026-05-08 17:35 47.61264 8.23442 14991 ft 418 kts 95°
2026-05-08 17:35 47.61061 8.27789 14993 ft 426 kts 95°
2026-05-08 17:36 47.60853 8.32207 14997 ft 432 kts 95°
2026-05-08 17:36 47.60641 8.36669 14999 ft 436 kts 95°
2026-05-08 17:36 47.60425 8.41172 15005 ft 439 kts 95°
2026-05-08 17:36 47.60211 8.45669 14864 ft 433 kts 95°
2026-05-08 17:37 47.59996 8.50056 14324 ft 422 kts 95°
2026-05-08 17:37 47.59784 8.54349 13706 ft 414 kts 95°
2026-05-08 17:37 47.59574 8.58570 13025 ft 408 kts 95°
2026-05-08 17:37 47.59367 8.62736 12367 ft 402 kts 95°
2026-05-08 17:38 47.59161 8.66833 11734 ft 397 kts 95°
2026-05-08 17:38 47.58956 8.70889 11120 ft 393 kts 95°
2026-05-08 17:38 47.58792 8.74119 10633 ft 386 kts 95°
2026-05-08 17:38 47.58552 8.78784 9978 ft 376 kts 95°
2026-05-08 17:39 47.58355 8.82599 9450 ft 368 kts 95°
2026-05-08 17:39 47.58161 8.86341 8928 ft 361 kts 95°
2026-05-08 17:39 47.57969 8.90016 8410 ft 356 kts 95°
2026-05-08 17:39 47.57778 8.93644 7899 ft 351 kts 95°
2026-05-08 17:40 47.57592 8.97176 7422 ft 345 kts 94°
2026-05-08 17:40 47.57413 9.00527 7023 ft 336 kts 94°
2026-05-08 17:40 47.57229 9.03967 6614 ft 326 kts 94°
2026-05-08 17:40 47.57055 9.07224 6277 ft 316 kts 94°
2026-05-08 17:41 47.56880 9.10427 5923 ft 309 kts 94°
2026-05-08 17:41 47.56711 9.13556 5560 ft 299 kts 94°
2026-05-08 17:41 47.56548 9.16553 5257 ft 287 kts 94°
2026-05-08 17:41 47.56390 9.19434 4965 ft 274 kts 94°
2026-05-08 17:42 47.56392 9.22152 4676 ft 257 kts 81°
2026-05-08 17:42 47.56862 9.24621 4369 ft 243 kts 66°
2026-05-08 17:42 47.57641 9.26757 4183 ft 230 kts 59°
2026-05-08 17:42 47.58445 9.28754 4029 ft 221 kts 59°
2026-05-08 17:43 47.59181 9.30681 3999 ft 209 kts 60°
2026-05-08 17:43 47.59895 9.32500 3988 ft 198 kts 59°
2026-05-08 17:43 47.60565 9.34230 3798 ft 190 kts 61°
2026-05-08 17:43 47.61218 9.35912 3547 ft 186 kts 59°
2026-05-08 17:44 47.61859 9.37559 3298 ft 183 kts 60°
2026-05-08 17:44 47.62466 9.39131 3056 ft 170 kts 59°
2026-05-08 17:44 47.63048 9.40614 2821 ft 164 kts 59°
2026-05-08 17:44 47.63604 9.42060 2602 ft 160 kts 59°
2026-05-08 17:45 47.64137 9.43434 2389 ft 144 kts 60°
2026-05-08 17:45 47.64630 9.44706 2196 ft 146 kts 60°
2026-05-08 17:45 47.65137 9.46013 2032 ft 146 kts 60°
2026-05-08 17:45 47.65647 9.47318 1838 ft 146 kts 60°
2026-05-08 17:46 47.66148 9.48621 1636 ft 145 kts 60°
2026-05-08 17:46 47.66643 9.49892 1452 ft 140 kts 59°
2026-05-08 17:46 47.67091 9.51044 1371 ft 101 kts 60°
2026-05-08 17:46 47.67295 9.51576 1370 ft 39 kts 58°
2026-05-08 17:47 47.67392 9.51820 1368 ft 26 kts 61°
2026-05-08 17:47 47.67472 9.52028 1368 ft 14 kts 73°
2026-05-08 17:47 47.67420 9.52108 1370 ft 13 kts 151°
2026-05-08 17:47 47.67361 9.52116 1370 ft 12 kts 189°
2026-05-08 17:48 47.67275 9.52128 1370 ft 8 kts 172°
2026-05-08 17:48 47.67274 9.52107 1370 ft 0 kts 352°